Location: Maiden
(35.5760°N, 81.2120°W)
Time: 02:57:08
(UTC-04:00)

Gbstr 26 Del rocket - Pass Details

Date: 02 August 2020
Orbit: 492 x 1264 km, 51.8° (Epoch: 11 August)

Event Time Altitude Azimuth Distance (km) Brightness Sun altitude
Rises 21:38:03 0° 320° (NW) 2,625 7.9 -13.5°
Reaches altitude 10° 21:40:30 10° 333° (NNW) 1,699 6.3 -14.0°
Maximum altitude 21:43:44 27° 33° (NNE) 982 4.1 -14.5°
Enters shadow 21:45:41 18° 78° (ENE) 1,292 4.3 -14.8°
